Weather History for KFNT - November, 2012

Change the Weather History Date:

Sunday, November 25, 2012

  Actual Average Record
Temperature  
Mean Temperature 31 °F 35 °F  
Max Temperature 35 °F 42 °F 63 °F (2001)
Min Temperature 27 °F 28 °F 9 °F (1950)
Degree Days  
Heating Degree Days 34 30  
Month to date heating degree days 621 629  
Since 1 July heating degree days 1227 1325  
Cooling Degree Days 0 0  
Month to date cooling degree days 0 0  
Year to date cooling degree days 864 531  
Moisture  
Dew Point 23 °F    
Average Humidity 75    
Maximum Humidity 92    
Minimum Humidity 58    
Precipitation  
Precipitation 0.05 in 0.09 in 1.71 in (1987)
Month to date precipitation 0.60 2.27  
Year to date precipitation 28.22 29.05  
Snow  
Snow 1.60 in 0.10 in 6.50 in (1950)
Month to date snowfall 1.9 1.6  
Since 1 July snowfall 2.2 2.0  
Since 1 September snowfall 2.2 2.0  
Snow Depth 1.00 in    
Sea Level Pressure  
Sea Level Pressure 29.92 in    
Wind  
Wind Speed 8 mph (SW)    
Max Wind Speed 15 mph    
Max Gust Speed 20 mph    
Visibility 6 miles    
Events Snow    
T = Trace of Precipitation, MM = Missing Value Source: NWS Daily Summary

Daily Weather History Graph

Daily Weather History Graph

Search for Another Location

Airport or City:

Trip Planner

Search our weather history database for the weather conditions in past years. The results will help you decide how hot, cold, wet, or windy it might be!

Date:

Astronomy

Nov. 25, 2012 Rise Set
Actual Time 7:40 AM EST 5:03 PM EST
Civil Twilight 7:08 AM EST 5:35 PM EST
Nautical Twilight 6:33 AM EST 6:10 PM EST
Astronomical Twilight 5:59 AM EST 6:44 PM EST
Moon 3:22 PM EST (11/25) 4:50 AM EST (11/25)
Length of Visible Light 10h 26m
Length of Day
9h 23m
Waxing Gibbous, 93% of the Moon is Illuminated
Nov 25
Waxing Gibbous
Nov 28
Full
Dec 6
Last Quarter
Dec 13
New
Dec 20
First Quarter

Hourly Weather History & Observations

Time (EST) Temp. Windchill Dew Point Humidity Pressure Visibility Wind Dir Wind Speed Gust Speed Precip Events Conditions
12:53 AM 28.9 °F 25.2 °F 18.0 °F 64% 30.02 in 10.0 mi SSW 3.5 mph - N/A   Overcast
1:20 AM 28.4 °F 22.2 °F 17.6 °F 64% 29.99 in 10.0 mi SW 5.8 mph - N/A   Overcast
1:33 AM 28.4 °F 22.2 °F 19.4 °F 69% 29.98 in 10.0 mi SW 5.8 mph - N/A   Overcast
1:53 AM 30.0 °F 23.2 °F 19.0 °F 64% 30.00 in 10.0 mi SSW 6.9 mph - N/A   Overcast
2:19 AM 30.2 °F 24.3 °F 19.4 °F 64% 29.95 in 10.0 mi SSW 5.8 mph - N/A   Overcast
2:53 AM 30.0 °F 21.7 °F 19.9 °F 66% 30.00 in 10.0 mi SW 9.2 mph - N/A   Overcast
3:28 AM 28.4 °F 18.5 °F 21.2 °F 74% 29.96 in 2.0 mi WSW 11.5 mph - 0.00 in Snow Light Snow
3:49 AM 28.4 °F 20.4 °F 21.2 °F 74% 29.94 in 1.8 mi SW 8.1 mph - 0.00 in Snow Light Snow
3:53 AM 28.0 °F 20.0 °F 23.0 °F 81% 29.97 in 1.5 mi SSW 8.1 mph - 0.00 in Snow Light Snow
4:26 AM 28.4 °F 21.2 °F 24.8 °F 86% 29.91 in 1.0 mi SSW 6.9 mph - 0.02 in Snow Light Snow
4:39 AM 28.4 °F 21.2 °F 24.8 °F 86% 29.92 in 1.2 mi SW 6.9 mph - 0.03 in Snow Light Snow
4:53 AM 27.0 °F 18.7 °F 24.1 °F 89% 29.95 in 1.8 mi SW 8.1 mph - 0.03 in Snow Light Snow
5:00 AM 26.6 °F 18.2 °F 24.8 °F 93% 29.92 in 3.0 mi SW 8.1 mph - 0.00 in Snow Light Snow
5:18 AM 26.6 °F 19.1 °F 24.8 °F 93% 29.91 in 2.0 mi SSW 6.9 mph - 0.00 in Snow Light Snow
5:22 AM 26.6 °F 18.2 °F 23.0 °F 86% 29.91 in 3.0 mi SSW 8.1 mph - 0.00 in Snow Light Snow
5:53 AM 28.0 °F 18.6 °F 21.0 °F 75% 29.92 in 10.0 mi SSW 10.4 mph - 0.00 in   Overcast
6:24 AM 26.6 °F 17.5 °F 21.2 °F 80% 29.88 in 2.5 mi SSW 9.2 mph - 0.00 in Snow Light Snow
6:31 AM 28.4 °F 20.4 °F 21.2 °F 74% 29.87 in 3.0 mi SSW 8.1 mph - 0.00 in Snow Light Snow
6:53 AM 27.0 °F 18.0 °F 21.9 °F 81% 29.90 in 2.0 mi South 9.2 mph - 0.00 in Snow Light Snow
7:00 AM 26.6 °F 18.2 °F 21.2 °F 80% 29.87 in 1.2 mi SSW 8.1 mph - 0.00 in Snow Light Snow
7:26 AM 26.6 °F 18.2 °F 23.0 °F 86% 29.87 in 1.0 mi South 8.1 mph - 0.02 in Snow Light Snow
7:33 AM 26.6 °F 18.2 °F 23.0 °F 86% 29.87 in 1.5 mi South 8.1 mph - 0.02 in Snow Light Snow
7:49 AM 26.6 °F 18.2 °F 23.0 °F 86% 29.85 in 3.0 mi South 8.1 mph - 0.02 in Snow Light Snow
7:53 AM 27.0 °F 19.5 °F 23.0 °F 85% 29.89 in 4.0 mi South 6.9 mph - 0.02 in Snow Light Snow
8:53 AM 28.0 °F 20.8 °F 21.9 °F 78% 29.89 in 8.0 mi SSW 6.9 mph - 0.00 in   Overcast
9:53 AM 28.9 °F 19.2 °F 23.0 °F 78% 29.89 in 6.0 mi SSW 11.5 mph - N/A   Haze
10:53 AM 28.9 °F 21.1 °F 23.0 °F 78% 29.88 in 9.0 mi SW 8.1 mph - N/A   Overcast
11:53 AM 30.9 °F 22.2 °F 23.0 °F 72% 29.86 in 9.0 mi WSW 10.4 mph - N/A   Overcast
12:53 PM 32.0 °F 23.0 °F 24.1 °F 73% 29.85 in 9.0 mi WSW 11.5 mph - N/A   Overcast
1:53 PM 33.1 °F 25.5 °F 25.0 °F 72% 29.84 in 9.0 mi WSW 9.2 mph - N/A   Overcast
2:53 PM 34.0 °F 26.6 °F 26.1 °F 73% 29.86 in 8.0 mi West 9.2 mph - N/A   Overcast
3:29 PM 33.8 °F 27.0 °F 26.6 °F 75% 29.83 in 8.0 mi WSW 8.1 mph - N/A   Overcast
3:53 PM 34.0 °F 26.6 °F 26.1 °F 73% 29.87 in 8.0 mi WSW 9.2 mph - N/A   Overcast
4:53 PM 34.0 °F 28.8 °F 27.0 °F 75% 29.88 in 9.0 mi SW 5.8 mph - N/A   Overcast
5:53 PM 34.0 °F 29.8 °F 27.0 °F 75% 29.90 in 9.0 mi SW 4.6 mph - N/A   Overcast
6:53 PM 34.0 °F 28.8 °F 27.0 °F 75% 29.92 in 9.0 mi WSW 5.8 mph - N/A   Overcast
7:36 PM 33.8 °F 27.7 °F 28.4 °F 81% 29.91 in 9.0 mi WNW 6.9 mph - N/A   Overcast
7:50 PM 35.6 °F 29.2 °F 26.6 °F 70% 29.91 in 9.0 mi WNW 8.1 mph - N/A   Overcast
7:53 PM 34.0 °F 28.0 °F 28.0 °F 79% 29.94 in 9.0 mi West 6.9 mph - N/A   Overcast
8:53 PM 34.0 °F 27.2 °F 27.0 °F 75% 29.96 in 9.0 mi West 8.1 mph - N/A   Overcast
9:53 PM 33.1 °F 24.9 °F 23.0 °F 66% 29.97 in 10.0 mi WNW 10.4 mph - N/A   Mostly Cloudy
10:53 PM 30.9 °F 23.5 °F 23.0 °F 72% 30.00 in 10.0 mi West 8.1 mph - N/A   Mostly Cloudy
11:53 PM 30.9 °F 24.3 °F 21.9 °F 69% 30.01 in 10.0 mi West 6.9 mph - N/A   Clear